Change the Weather History Date:

Tuesday, November 20, 2012

  Actual Average (KISN) Record (KISN)
Temperature  
Mean Temperature 36 °F 24 °F  
Max Temperature 39 °F 35 °F 64 °F (2006)
Min Temperature 32 °F 14 °F -22 °F (1896)
Degree Days  
Heating Degree Days 30 41  
Month to date heating degree days 701  
Since 1 July heating degree days 1728  
Cooling Degree Days 0 0  
Month to date cooling degree days 0  
Year to date cooling degree days 456  
Moisture  
Dew Point 31 °F    
Average Humidity 80    
Maximum Humidity 100    
Minimum Humidity 65    
Precipitation  
Precipitation 0.00 in 0.02 in 0.38 in (2010)
Month to date precipitation 0.47  
Year to date precipitation 13.57  
Snow  
Snow 0.00 in 0.20 in 6.60 in (2010)
Snow Depth -    
Sea Level Pressure  
Sea Level Pressure 29.82 in    
Wind  
Wind Speed 15 mph (SSW)    
Max Wind Speed 18 mph    
Max Gust Speed 24 mph    
Visibility 10 miles    
Events      
T = Trace of Precipitation, MM = Missing Value Source: NWS Daily Summary

Daily Weather History Graph

Daily Weather History Graph

Search for Another Location

Airport or City:

Trip Planner

Search our weather history database for the weather conditions in past years. The results will help you decide how hot, cold, wet, or windy it might be!

Date:

Astronomy

Nov. 20, 2012 Rise Set
Actual Time 8:10 AM CST 5:06 PM CST
Civil Twilight 7:35 AM CST 5:41 PM CST
Nautical Twilight 6:56 AM CST 6:20 PM CST
Astronomical Twilight 6:19 AM CST 6:58 PM CST
Moon 1:28 PM CST (11/20) No Moon Set
Length of Visible Light 10h 06m
Length of Day
8h 55m
First Quarter, 51% of the Moon is Illuminated
Nov 20
First Quarter
Nov 28
Full
Dec 6
Last Quarter
Dec 13
New
Dec 19
First Quarter

Hourly Weather History & Observations

Time (CST) Temp. Windchill Dew Point Humidity Pressure Visibility Wind Dir Wind Speed Gust Speed Precip Events Conditions
12:15 AM 37.4 °F 27.8 °F 26.6 °F 65% 29.89 in 10.0 mi South 17.3 mph - N/A   Clear
12:35 AM 37.4 °F 27.5 °F 26.6 °F 65% 29.88 in 10.0 mi South 18.4 mph 24.2 mph N/A   Clear
1:15 AM 37.4 °F 28.5 °F 26.6 °F 65% 29.88 in 10.0 mi South 15.0 mph - N/A   Clear
1:35 AM 35.6 °F 25.9 °F 26.6 °F 70% 29.87 in 10.0 mi South 16.1 mph - N/A   Clear
1:55 AM 35.6 °F 25.9 °F 26.6 °F 70% 29.86 in 10.0 mi South 16.1 mph - N/A   Clear
2:15 AM 35.6 °F 25.9 °F 26.6 °F 70% 29.86 in 10.0 mi South 16.1 mph - N/A   Clear
2:35 AM 35.6 °F 26.2 °F 26.6 °F 70% 29.86 in 10.0 mi South 15.0 mph - N/A   Clear
6:15 AM 35.6 °F 25.2 °F 28.4 °F 75% 29.82 in 10.0 mi South 18.4 mph - N/A   Clear
6:35 AM 35.6 °F 25.5 °F 28.4 °F 75% 29.81 in 10.0 mi South 17.3 mph - N/A   Clear
6:55 AM 35.6 °F 25.5 °F 28.4 °F 75% 29.81 in 10.0 mi South 17.3 mph - N/A   Clear
7:15 AM 35.6 °F 25.9 °F 28.4 °F 75% 29.81 in 10.0 mi SSW 16.1 mph - N/A   Clear
7:35 AM 35.6 °F 25.9 °F 28.4 °F 75% 29.81 in 10.0 mi South 16.1 mph - N/A   Clear
7:55 AM 35.6 °F 25.5 °F 28.4 °F 75% 29.81 in 10.0 mi South 17.3 mph - N/A   Clear
8:15 AM 33.8 °F 23.9 °F 28.4 °F 81% 29.81 in 10.0 mi South 15.0 mph - N/A   Clear
8:35 AM 35.6 °F 25.9 °F 28.4 °F 75% 29.82 in 10.0 mi SSW 16.1 mph - N/A   Clear
8:55 AM 35.6 °F 25.9 °F 28.4 °F 75% 29.82 in 10.0 mi South 16.1 mph - N/A   Clear
9:15 AM 35.6 °F 25.9 °F 28.4 °F 75% 29.82 in 10.0 mi South 16.1 mph - N/A   Clear
9:35 AM 37.4 °F 27.8 °F 30.2 °F 75% 29.82 in 10.0 mi SSW 17.3 mph - N/A   Clear
9:55 AM 37.4 °F 28.2 °F 30.2 °F 75% 29.82 in 10.0 mi SSW 16.1 mph - N/A   Clear
10:15 AM 37.4 °F 27.5 °F 30.2 °F 75% 29.82 in 10.0 mi SSW 18.4 mph - N/A   Clear
10:35 AM 37.4 °F 28.2 °F 32.0 °F 81% 29.82 in 10.0 mi SSW 16.1 mph - N/A   Clear
10:55 AM 39.2 °F 30.8 °F 32.0 °F 75% 29.82 in 10.0 mi SSW 15.0 mph - N/A   Clear
11:15 AM 39.2 °F 30.8 °F 32.0 °F 75% 29.83 in 10.0 mi South 15.0 mph - N/A   Clear
11:35 AM 39.2 °F 30.2 °F 32.0 °F 75% 29.82 in 10.0 mi SSW 17.3 mph - N/A   Clear
11:55 AM 39.2 °F 30.5 °F 32.0 °F 75% 29.83 in 10.0 mi SSW 16.1 mph - N/A   Clear
12:15 PM 39.2 °F 31.2 °F 32.0 °F 75% 29.82 in 10.0 mi SSW 13.8 mph - N/A   Clear
12:35 PM 37.4 °F 27.8 °F 32.0 °F 81% 29.80 in 10.0 mi SSW 17.3 mph - N/A   Clear
12:55 PM 39.2 °F 29.8 °F 32.0 °F 75% 29.79 in 10.0 mi SSW 18.4 mph - N/A   Clear
1:15 PM 39.2 °F 30.5 °F 32.0 °F 75% 29.80 in 10.0 mi SSW 16.1 mph - N/A   Clear
1:35 PM 39.2 °F 31.2 °F 32.0 °F 75% 29.80 in 10.0 mi SSW 13.8 mph - N/A   Clear
2:15 PM 39.2 °F 31.2 °F 32.0 °F 75% 29.80 in 10.0 mi SSW 13.8 mph 20.7 mph N/A   Clear
2:35 PM 39.2 °F 30.5 °F 32.0 °F 75% 29.80 in 10.0 mi SSW 16.1 mph - N/A   Clear
2:55 PM 39.2 °F 30.8 °F 32.0 °F 75% 29.80 in 10.0 mi SSW 15.0 mph - N/A   Clear
3:15 PM 39.2 °F 31.6 °F 32.0 °F 75% 29.79 in 10.0 mi SSW 12.7 mph - N/A   Clear
3:35 PM 39.2 °F 32.0 °F 32.0 °F 75% 29.79 in 10.0 mi SSW 11.5 mph - N/A   Clear
3:55 PM 39.2 °F 31.6 °F 32.0 °F 75% 29.80 in 10.0 mi SSW 12.7 mph - N/A   Clear
4:15 PM 37.4 °F 29.8 °F 32.0 °F 81% 29.81 in 10.0 mi SSW 11.5 mph - N/A   Clear
4:35 PM 37.4 °F 30.3 °F 32.0 °F 81% 29.81 in 10.0 mi SSW 10.4 mph - N/A   Clear
4:55 PM 37.4 °F 29.3 °F 32.0 °F 81% 29.81 in 10.0 mi South 12.7 mph - N/A   Clear
5:15 PM 37.4 °F 30.3 °F 32.0 °F 81% 29.81 in 10.0 mi South 10.4 mph - N/A   Clear
5:35 PM 37.4 °F 30.3 °F 32.0 °F 81% 29.81 in 10.0 mi SSW 10.4 mph - N/A   Clear
5:55 PM 35.6 °F 28.0 °F 32.0 °F 87% 29.81 in 10.0 mi SSW 10.4 mph - N/A   Clear
6:15 PM 35.6 °F 29.2 °F 32.0 °F 87% 29.81 in 10.0 mi South 8.1 mph - N/A   Clear
6:35 PM 35.6 °F 27.5 °F 32.0 °F 87% 29.81 in 10.0 mi SSW 11.5 mph - N/A   Clear
6:55 PM 35.6 °F 27.5 °F 32.0 °F 87% 29.82 in 10.0 mi SSW 11.5 mph - N/A   Clear
7:15 PM 35.6 °F 29.2 °F 32.0 °F 87% 29.82 in 10.0 mi SSW 8.1 mph - N/A   Clear
7:35 PM 35.6 °F 27.5 °F 32.0 °F 87% 29.83 in 10.0 mi SSW 11.5 mph - N/A   Clear
7:55 PM 35.6 °F 28.6 °F 32.0 °F 87% 29.83 in 10.0 mi SSW 9.2 mph - N/A   Clear
8:15 PM 33.8 °F 28.6 °F 32.0 °F 93% 29.83 in 10.0 mi WSW 5.8 mph - N/A   Clear
8:35 PM 35.6 °F 27.5 °F 32.0 °F 87% 29.84 in 10.0 mi SSW 11.5 mph - N/A   Clear
8:55 PM 35.6 °F 28.0 °F 32.0 °F 87% 29.84 in 10.0 mi SSW 10.4 mph - N/A   Clear
9:15 PM 35.6 °F 29.2 °F 32.0 °F 87% 29.84 in 10.0 mi SSW 8.1 mph - N/A   Clear
9:35 PM 35.6 °F 29.2 °F 32.0 °F 87% 29.84 in 10.0 mi SW 8.1 mph - N/A   Clear
9:55 PM 35.6 °F 28.6 °F 32.0 °F 87% 29.83 in 10.0 mi SSW 9.2 mph - N/A   Clear
10:15 PM 35.6 °F 28.6 °F 32.0 °F 87% 29.82 in 10.0 mi South 9.2 mph - N/A   Clear
10:35 PM 35.6 °F 28.0 °F 32.0 °F 87% 29.83 in 10.0 mi SSW 10.4 mph - N/A   Clear
10:55 PM 35.6 °F 28.0 °F 32.0 °F 87% 29.83 in 10.0 mi SSW 10.4 mph - N/A   Clear
11:15 PM 32.0 °F 25.6 °F 32.0 °F 100% 29.84 in 10.0 mi SSW 6.9 mph - N/A   Clear
11:35 PM 32.0 °F - 32.0 °F 100% 29.84 in 10.0 mi Calm Calm - N/A   Clear
11:55 PM 32.0 °F 27.5 °F 32.0 °F 100% 29.83 in 10.0 mi NNW 4.6 mph - N/A   Clear